User: anonymous   Login
Location: Abundant Grace Fellowship
(35.0349°N, 90.0924°W)
Time: 23:49:46
(UTC+00:00)
Language:

Cosmos 1869 Rocket - Orbit

View from above orbital plane
View from above orbital plane
View from above satellite
View from above satellite

Ground track
Ground track

The orbit is defined by the following mean orbital elements,

1 18215U          26067.37582066 +.00000000 +00000-0 +87550-4 0 00007
2 18215  82.5145 174.4952 0020707  59.9813   3.1285 14.85635080    06
Epoch (UTC): 08 March 2026 09:01:10
Eccentricity: 0.0020707
inclination: 82.5145°
perigee height: 597 km
apogee height: 626 km
right ascension of ascending node: 174.4952°
argument of perigee: 59.9813°
revolutions per day: 14.85635080
mean anomaly at epoch: 3.1285°

The dashed part of the orbit path shows where the satellite is in the earth's shadow,  

DLR